Notices

What's New in latest Release from April 7th, 2021:

- Updated Glossary, including Speed of Maximum Gust, and Total Hourly Precipitation

- Updated national and regional climate services offices contacts and prices information

- Addition of station inventory lists for 1981-2010, 1971-2000, and 1961-1990 Normals.

If you haven't already, please take our survey and provide feedback about our website: https://eccc.sondage-survey.ca/f/LanguageSelection.aspx?s=442ca660-fcf1-47c0-95a9-59707d6fd709

Hourly Data Report for October 30, 2019

PINAWA
MANITOBA
Current Station Operator: ECCC - MSC

50°10'38.020" N
96°03'53.000" W
268.00 m
503B1ER
71448
WEA

Download Data

Hourly Data (October 2019)
Hourly Data Report for October 30, 2019
TIME
LST
Temp Definition
°C
Dew Point Definition
°C
Rel Hum Definition
%
Precip. Amount Definition
mm

Wind Dir Definition
10's deg

Wind Spd Definition
km/h
Visibility Definition
km
Stn Press Definition
kPa
Hmdx Definition


Wind Chill Definition


Weather Definition


00:00 -7.2 LegendMM LegendMM 0.0 24 7   98.78   -11 LegendNANA
01:00 -6.7 LegendMM LegendMM 0.0 23 6   98.80   -10 LegendNANA
02:00 -6.9 LegendMM LegendMM 0.2 23 8   98.83   -11 LegendNANA
03:00 -8.8 LegendMM LegendMM 0.0 23 6   98.84   -12 LegendNANA
04:00 -9.1 LegendMM LegendMM 0.0 22 6   98.86   -12 LegendNANA
05:00 -8.5 LegendMM LegendMM 0.0 23 7   98.89   -12 LegendNANA
06:00 -8.1 LegendMM LegendMM 0.0 23 7   98.91   -12 LegendNANA
07:00 -8.0 LegendMM LegendMM 0.0 21 7   98.92   -12 LegendNANA
08:00 -8.1 LegendMM LegendMM 0.0 21 6   98.97   -11 LegendNANA
09:00 -7.8 LegendMM LegendMM 0.0 22 6   99.01   -11 LegendNANA
10:00 -6.9 LegendMM LegendMM 0.0 24 7   99.01   -10 LegendNANA
11:00 -6.3 LegendMM LegendMM 0.0 23 6   99.04   -9 LegendNANA
12:00 -5.3 LegendMM LegendMM 0.0 25 7   99.04   -9 LegendNANA
13:00 -4.5 LegendMM LegendMM 0.0 23 6   99.00   -7 LegendNANA
14:00 -4.0 LegendMM LegendMM 0.0 24 6   98.96   -7 LegendNANA
15:00 -3.7 LegendMM LegendMM 0.0 22 6   98.93   -6 LegendNANA
16:00 -3.7 LegendMM LegendMM 0.0 25 6   98.93   -6 LegendNANA
17:00 -3.7 LegendMM LegendMM 0.0 24 6   98.93   -6 LegendNANA
18:00 -3.9 LegendMM LegendMM 0.0 23 5   98.92   -6 LegendNANA
19:00 -4.0 LegendMM LegendMM 0.0 18 3   98.90   -5 LegendNANA
20:00 -4.0 LegendMM LegendMM 0.0 22 5   98.87   -6 LegendNANA
21:00 -4.2 LegendMM LegendMM 0.0 18 7   98.83   -7 LegendNANA
22:00 -4.2 LegendMM LegendMM 0.0 18 7   98.77   -7 LegendNANA
23:00 -4.2 LegendMM LegendMM 0.0 18 5   98.73   -6 LegendNANA

Notes on Data Quality.

Legend

  • E = Estimated
  • M = Missing
  • NA = Not Available*
  • [empty] = Indicates an unobserved value
Date modified: